Location: Unspecified
(0.0000°N, 0.0000°E)
Time: 10:13:38
(UTC+00:00)

Vanguard 2 - Pass Details

Date: 20 October 2021
Orbit: 554 x 2936 km, 32.9° (Epoch: 06 December)

Event Time Altitude Azimuth Distance (km) Brightness Sun altitude
Rises 00:01:06 0° 244° (WSW) 6,767 12.4 -78.9°
Enters shadow 00:03:26 - 245° (WSW) 6,232 12.1 -78.7°
Reaches altitude 10° 00:05:57 10° 247° (WSW) 5,647 - -78.4°
Maximum altitude 00:22:03 57° 321° (NW) 2,536 - -76.1°
Drops below altitude 10° 00:32:37 10° 38° (NE) 3,831 - -74.2°
Sets 00:35:17 0° 43° (NE) 4,536 - -73.7°
